Hourly Weather Sharm el-Szeikh

Today, 23 September, Wednesday

Time Temperature Precipitation Wind Pressure Humidity
00:00 +30°C° 0 mm 5 mps 753 mmHg 39%
01:00 +30°C° 0 mm 6 mps 753 mmHg 40%
02:00 +29°C° 0 mm 6 mps 752 mmHg 40%
03:00 +29°C° 0 mm 6 mps 753 mmHg 43%
04:00 +28°C° 0 mm 5 mps 753 mmHg 46%
05:00 +27°C° 0 mm 5 mps 753 mmHg 49%
06:00 +30°C° 0 mm 5 mps 753 mmHg 42%
07:00 +34°C° 0 mm 6 mps 753 mmHg 35%
08:00 +38°C° 0 mm 6 mps 753 mmHg 25%
09:00 +40°C° 0 mm 6 mps 753 mmHg 25%
10:00 +41°C° 0 mm 6 mps 753 mmHg 25%
11:00 +42°C° 0 mm 6 mps 753 mmHg 25%
12:00 +44°C° 0 mm 6 mps 752 mmHg 24%
13:00 +44°C° 0 mm 6 mps 752 mmHg 23%
14:00 +45°C° 0 mm 6 mps 751 mmHg 23%
15:00 +44°C° 0 mm 6 mps 751 mmHg 24%
16:00 +42°C° 0 mm 6 mps 751 mmHg 26%
17:00 +41°C° 0 mm 5 mps 751 mmHg 27%
18:00 +37°C° 0 mm 5 mps 751 mmHg 32%
19:00 +35°C° 0 mm 4 mps 752 mmHg 36%
20:00 +33°C° 0 mm 4 mps 752 mmHg 40%
21:00 +32°C° 0 mm 4 mps 752 mmHg 41%
22:00 +32°C° 0 mm 4 mps 752 mmHg 43%
23:00 +30°C° 0 mm 4 mps 752 mmHg 44%

Tomorrow, 24 September, Thursday

Time Temperature Precipitation Wind Pressure Humidity
00:00 +30°C° 0 mm 5 mps 752 mmHg 48%
01:00 +29°C° 0 mm 6 mps 752 mmHg 53%
02:00 +28°C° 0 mm 6 mps 752 mmHg 57%
03:00 +28°C° 0 mm 6 mps 752 mmHg 58%
04:00 +27°C° 0 mm 6 mps 753 mmHg 60%
05:00 +26°C° 0 mm 5 mps 753 mmHg 62%
06:00 +29°C° 0 mm 5 mps 753 mmHg 53%
07:00 +32°C° 0 mm 5 mps 753 mmHg 45%
08:00 +35°C° 0 mm 5 mps 753 mmHg 37%
09:00 +36°C° 0 mm 6 mps 753 mmHg 35%
10:00 +39°C° 0 mm 6 mps 753 mmHg 33%
11:00 +40°C° 0 mm 6 mps 753 mmHg 30%
12:00 +41°C° 0 mm 6 mps 752 mmHg 29%
13:00 +41°C° 0 mm 6 mps 752 mmHg 28%
14:00 +42°C° 0 mm 6 mps 751 mmHg 26%
15:00 +41°C° 0 mm 5 mps 751 mmHg 28%
16:00 +40°C° 0 mm 5 mps 751 mmHg 29%
17:00 +38°C° 0 mm 4 mps 751 mmHg 31%
18:00 +36°C° 0 mm 4 mps 751 mmHg 36%
19:00 +33°C° 0 mm 3 mps 752 mmHg 42%
20:00 +30°C° 0 mm 3 mps 752 mmHg 48%
21:00 +30°C° 0 mm 3 mps 752 mmHg 47%
22:00 +29°C° 0 mm 3 mps 752 mmHg 46%
23:00 +29°C° 0 mm 3 mps 753 mmHg 45%

Day after tomorrow, 25 September, Friday

Time Temperature Precipitation Wind Pressure Humidity
00:00 +28°C° 0 mm 4 mps 752 mmHg 48%
01:00 +28°C° 0 mm 5 mps 752 mmHg 51%
02:00 +27°C° 0 mm 6 mps 752 mmHg 54%
03:00 +27°C° 0 mm 6 mps 752 mmHg 55%
04:00 +26°C° 0 mm 6 mps 752 mmHg 56%
05:00 +26°C° 0 mm 6 mps 752 mmHg 57%
06:00 +28°C° 0 mm 5 mps 752 mmHg 50%
07:00 +30°C° 0 mm 5 mps 752 mmHg 43%
08:00 +34°C° 0 mm 5 mps 752 mmHg 36%
09:00 +35°C° 0 mm 5 mps 752 mmHg 32%
10:00 +37°C° 0 mm 5 mps 752 mmHg 29%
11:00 +40°C° 0 mm 5 mps 751 mmHg 26%
12:00 +40°C° 0 mm 5 mps 751 mmHg 27%
13:00 +40°C° 0 mm 5 mps 751 mmHg 27%
14:00 +38°C° 0 mm 4 mps 750 mmHg 28%
15:00 +38°C° 0 mm 4 mps 750 mmHg 29%
16:00 +37°C° 0 mm 4 mps 750 mmHg 30%
17:00 +36°C° 0 mm 3 mps 750 mmHg 32%
18:00 +34°C° 0 mm 3 mps 750 mmHg 36%
19:00 +31°C° 0 mm 3 mps 751 mmHg 40%
20:00 +30°C° 0 mm 2 mps 751 mmHg 44%
21:00 +29°C° 0 mm 2 mps 751 mmHg 41%
22:00 +29°C° 0 mm 2 mps 751 mmHg 37%
23:00 +28°C° 0 mm 2 mps 751 mmHg 34%

26 September, Saturday

Time Temperature Precipitation Wind Pressure Humidity
00:00 +27°C° 0 mm 3 mps 751 mmHg 37%
01:00 +27°C° 0 mm 3 mps 751 mmHg 39%
02:00 +26°C° 0 mm 4 mps 751 mmHg 42%
03:00 +25°C° 0 mm 4 mps 751 mmHg 43%
04:00 +25°C° 0 mm 4 mps 751 mmHg 44%
05:00 +25°C° 0 mm 4 mps 751 mmHg 46%
06:00 +27°C° 0 mm 4 mps 751 mmHg 39%
07:00 +30°C° 0 mm 4 mps 751 mmHg 33%
08:00 +34°C° 0 mm 4 mps 751 mmHg 26%
09:00 +35°C° 0 mm 4 mps 751 mmHg 27%
10:00 +36°C° 0 mm 4 mps 751 mmHg 27%
11:00 +37°C° 0 mm 5 mps 751 mmHg 28%
12:00 +39°C° 0 mm 5 mps 750 mmHg 27%
13:00 +38°C° 0 mm 4 mps 750 mmHg 27%
14:00 +40°C° 0 mm 4 mps 749 mmHg 27%
15:00 +38°C° 0 mm 4 mps 749 mmHg 29%
16:00 +37°C° 0 mm 4 mps 749 mmHg 30%
17:00 +36°C° 0 mm 4 mps 750 mmHg 32%
18:00 +35°C° 0 mm 4 mps 750 mmHg 35%
19:00 +33°C° 0 mm 3 mps 751 mmHg 38%
20:00 +30°C° 0 mm 3 mps 751 mmHg 41%
21:00 +30°C° 0 mm 3 mps 751 mmHg 39%
22:00 +29°C° 0 mm 3 mps 751 mmHg 36%
23:00 +29°C° 0 mm 3 mps 752 mmHg 34%

27 September, Sunday

Time Temperature Precipitation Wind Pressure Humidity
00:00 +28°C° 0 mm 4 mps 752 mmHg 36%
01:00 +28°C° 0 mm 4 mps 751 mmHg 37%
02:00 +27°C° 0 mm 4 mps 751 mmHg 39%
03:00 +26°C° 0 mm 4 mps 751 mmHg 42%
04:00 +26°C° 0 mm 4 mps 752 mmHg 44%
05:00 +26°C° 0 mm 4 mps 752 mmHg 47%
06:00 +28°C° 0 mm 4 mps 752 mmHg 41%
07:00 +32°C° 0 mm 4 mps 752 mmHg 35%
08:00 +34°C° 0 mm 4 mps 753 mmHg 29%
09:00 +35°C° 0 mm 4 mps 753 mmHg 28%
10:00 +37°C° 0 mm 4 mps 752 mmHg 27%
11:00 +38°C° 0 mm 4 mps 752 mmHg 26%
12:00 +38°C° 0 mm 4 mps 752 mmHg 24%
13:00 +40°C° 0 mm 4 mps 751 mmHg 23%
14:00 +39°C° 0 mm 3 mps 751 mmHg 22%
15:00 +39°C° 0 mm 3 mps 750 mmHg 22%
16:00 +38°C° 0 mm 3 mps 750 mmHg 23%
17:00 +37°C° 0 mm 3 mps 750 mmHg 24%
18:00 +36°C° 0 mm 3 mps 751 mmHg 23%
19:00 +34°C° 0 mm 3 mps 752 mmHg 22%
20:00 +33°C° 0 mm 3 mps 752 mmHg 21%
21:00 +33°C° 0 mm 4 mps 752 mmHg 22%
22:00 +33°C° 0 mm 4 mps 753 mmHg 23%
23:00 +33°C° 0 mm 5 mps 753 mmHg 23%

28 September, Monday

Time Temperature Precipitation Wind Pressure Humidity
00:00 +33°C° 0 mm 5 mps 753 mmHg 26%
01:00 +32°C° 0 mm 6 mps 753 mmHg 28%
02:00 +32°C° 0 mm 6 mps 753 mmHg 31%
03:00 +30°C° 0 mm 6 mps 753 mmHg 33%
04:00 +30°C° 0 mm 6 mps 753 mmHg 35%
05:00 +29°C° 0 mm 6 mps 753 mmHg 36%
06:00 +33°C° 0 mm 6 mps 754 mmHg 32%
07:00 +35°C° 0 mm 5 mps 754 mmHg 28%
08:00 +37°C° 0 mm 5 mps 754 mmHg 24%
09:00 +39°C° 0 mm 6 mps 754 mmHg 22%
10:00 +41°C° 0 mm 6 mps 754 mmHg 21%
11:00 +42°C° 0 mm 6 mps 754 mmHg 19%
12:00 +44°C° 0 mm 6 mps 753 mmHg 18%
13:00 +43°C° 0 mm 5 mps 752 mmHg 17%
14:00 +43°C° 0 mm 5 mps 752 mmHg 16%
15:00 +42°C° 0 mm 4 mps 752 mmHg 17%
16:00 +41°C° 0 mm 4 mps 751 mmHg 18%
17:00 +39°C° 0 mm 3 mps 751 mmHg 19%
18:00 +38°C° 0 mm 4 mps 752 mmHg 19%
19:00 +37°C° 0 mm 4 mps 752 mmHg 20%
20:00 +36°C° 0 mm 5 mps 753 mmHg 20%
21:00 +35°C° 0 mm 5 mps 753 mmHg 23%
22:00 +35°C° 0 mm 6 mps 753 mmHg 26%
23:00 +35°C° 0 mm 7 mps 753 mmHg 29%
Show more